[[{"header":{"parameterUnit":"m.s-1","parameterCategory":1,"la1":30.2991,"la2":30.254,"lo1":-89.0895,"lo2":-89.0444,"dy":0.0017,"dx":0.0017,"nx":28,"ny":28,"refTime":"2023-11-04T03:00:00:Z","depth":0,"parameterNumber":2,"parameterNumberName":"U-component_of_WINDS"},"data":[0,0,0,0,0,0,0,0,0,0,0,0,0,0,0,0,0,0,0,0,0,0,0,0,0,0,0,0,0,0,0,0,0,0,0,0,0,0,0,0,0,0,0,0,0,0,0,0,0,0,0,0,0,0,0,0,0,0,0.201,0.2012,0,0.2115,0.2116,0.2117,0.2134,0.2133,0.2132,0.2132,0.2241,0.2245,0.2249,0,0,0,0,0,0,0,0,0,0,0,0,0,0.1828,0.1832,0.201,0.2012,0.2013,0.2114,0.2116,0.2117,0.2134,0.2133,0.2132,0.2131,0.224,0.2244,0.2249,0,0,0,0,0,0,0,0,0,0,0,0,0,0.1917,0.1833,0.201,0.2034,0.2037,0.2114,0.2116,0.2118,0.2135,0.2133,0.2132,0.2131,0.2238,0.2244,0.2249,0.2311,0,0,0.2267,0.2269,0,0,0,0,0,0,0,0,0.1912,0.1924,0.2029,0.2032,0.2036,0.211,0.2092,0.2183,0.2135,0.2098,0.2132,0.213,0.2199,0.2208,0.223,0.2317,0.2321,0.2267,0.2271,0.2273,0.2275,0,0,0,0,0,0,0,0.1906,0.192,0.2052,0.203,0.2035,0.204,0.2051,0.2109,0.2155,0.2101,0.2102,0.2114,0.22,0.2225,0.2233,0.2323,0.2267,0.2272,0.2276,0.2278,0.2464,0.2466,0,0,0,0,0,0,0.1895,0.1914,0.2048,0.2055,0.1969,0.2044,0.2057,0.2088,0.2154,0.2163,0.2115,0.2115,0.2216,0.2226,0.2237,0.2313,0.2273,0.2278,0.2282,0.2463,0.2465,0.2467,0,0,0,0,0,0,0.1891,0.1907,0.2044,0.1985,0.2003,0.2049,0.2083,0.209,0.2115,0.2165,0.2173,0.2132,0.2215,0.2229,0.2292,0.2317,0.2281,0.2286,0.2461,0.2463,0.2466,0.2467,0,0,0,0,0,0,0.1886,0.1906,0.1929,0.1985,0.2006,0.2097,0.2085,0.2093,0.2124,0.2124,0.2182,0.2191,0.2215,0.2284,0.2298,0.2324,0.229,0.2459,0.2462,0.2465,0.2465,0.2469,0.2472,0,0,0,0,0,0.188,0.1926,0.193,0.1946,0.2036,0.2099,0.2111,0.2137,0.2126,0.215,0.2182,0.2189,0.2312,0.229,0.2306,0.2335,0.2458,0.2461,0.2465,0.2463,0.2468,0.2472,0,0,0,0,0,0,0.1873,0.1934,0.1939,0.2005,0.2047,0.2101,0.2133,0.2141,0.2187,0.2186,0.2217,0.223,0.2292,0.232,0.2294,0.2398,0.2384,0.2391,0.2377,0.2382,0.2386,0.2378,0.2295,0,0,0,0,0,0.1879,0.1924,0.1975,0.2029,0.2049,0.2087,0.2116,0.2132,0.2176,0.2194,0.2231,0.2274,0.2323,0.2354,0.2402,0.2468,0.2481,0.2496,0.25,0.2503,0.2508,0.2545,0.2552,0.2478,0.2478,0.2478,0,0,0.1893,0.1931,0.1958,0.2028,0.2062,0.2108,0.2102,0.2151,0.2186,0.2202,0.2264,0.2292,0.2343,0.2408,0.2438,0.2433,0.2531,0.2507,0.2509,0.2513,0.2549,0.2556,0.2562,0.2481,0.248,0.248,0,0,0.1941,0.1974,0.2022,0.2056,0.2107,0.2132,0.2143,0.2197,0.2216,0.2278,0.229,0.2332,0.2415,0.2451,0.2479,0.2539,0.2547,0.2554,0.2574,0.2609,0.2615,0.262,0.2641,0.2648,0.2559,0.2559,0.2559,0,0.1951,0.202,0.2046,0.2094,0.2125,0.214,0.2189,0.222,0.2284,0.2305,0.2298,0.2401,0.2437,0.251,0.2524,0.2547,0.2561,0.2547,0.2612,0.2618,0.2623,0.2643,0.2651,0.256,0.256,0.256,0.256,0,0.2031,0.2078,0.2111,0.2171,0.2205,0.2254,0.2287,0.2318,0.2331,0.2357,0.242,0.2463,0.2518,0.2537,0.2551,0.2612,0.2607,0.2605,0.2592,0.263,0.2649,0.2657,0.256,0.256,0.256,0.256,0,0,0.2078,0.215,0.2162,0.2189,0.2246,0.2283,0.2332,0.2386,0.2412,0.2456,0.2497,0.2566,0.2565,0.2598,0.2616,0.2647,0.269,0.2641,0.2643,0.2648,0.2759,0.276,0.2768,0.2695,0.2697,0.2698,0.2755,0,0.2132,0.2219,0.2243,0.2317,0.2361,0.2375,0.2418,0.2458,0.2483,0.2525,0.2553,0.2601,0.2596,0.2615,0.2647,0.2678,0.2713,0.2675,0.2735,0.2737,0.2721,0.2779,0.278,0.2831,0.2763,0.2764,0.2765,0,0.2208,0.2251,0.2328,0.2378,0.2398,0.2436,0.2486,0.2526,0.2571,0.2587,0.2622,0.2637,0.2689,0.2673,0.2744,0.2718,0.2744,0.2763,0.2765,0.2772,0.2753,0.2787,0.2848,0.2856,0.2777,0.2776,0.2776,0,0.2234,0.2312,0.2368,0.2391,0.245,0.2476,0.2503,0.2546,0.2577,0.2621,0.2641,0.2691,0.2718,0.2757,0.2784,0.277,0.2853,0.284,0.2868,0.2868,0.2885,0.2884,0.2952,0.2903,0.2902,0.2902,0.2902,0,0.2292,0.2338,0.238,0.2415,0.2468,0.2495,0.2547,0.2574,0.2612,0.2652,0.2668,0.2706,0.274,0.2783,0.2805,0.286,0.2873,0.2888,0.2893,0.2886,0.2884,0.2903,0.29,0.2904,0.2904,0.2904,0.2903,0,0.233,0.236,0.2422,0.2473,0.2487,0.2523,0.2567,0.2601,0.2627,0.2677,0.2691,0.2731,0.2782,0.2813,0.2878,0.2892,0.2953,0.2958,0.2938,0.294,0.2966,0.2963,0.3049,0.3061,0.3004,0.3005,0.3005,0,0.2365,0.2401,0.2455,0.2483,0.2509,0.2553,0.2584,0.2612,0.2643,0.2696,0.2724,0.2775,0.2818,0.2897,0.2933,0.2982,0.2987,0.3014,0.2995,0.2986,0.2987,0.2984,0.2988,0.3017,0.3017,0.3018,0.3018,0,0.2423,0.2436,0.2479,0.2526,0.2562,0.2601,0.2641,0.2662,0.2697,0.2731,0.2782,0.2815,0.288,0.2931,0.2983,0.301,0.302,0.3024,0.3033,0.3026,0.3013,0.302,0.2946,0.3022,0.3021,0.3021,0.3021,0.3021,0.2461,0.2493,0.2536,0.2583,0.2615,0.2651,0.2685,0.2714,0.2757,0.2811,0.2825,0.2879,0.2922,0.2993,0.3021,0.3064,0.306,0.3073,0.3077,0.3079,0.3079,0.3006,0.3073,0.3073,0.3073,0.3073,0.3073,0,0.2519,0.2547,0.259,0.2644,0.2681,0.2685,0.2729,0.2759,0.2806,0.2845,0.2886,0.2944,0.2993,0.3032,0.3082,0.3108,0.3114,0.312,0.3119,0.3125,0.308,0.3067,0.3115,0.3115,0.3115,0.3115,0.3115,0.3115,0.2554,0.2609,0.2626,0.2697,0.2725,0.2777,0.2801,0.2834,0.2865,0.2929,0.297,0.2994,0.3033,0.3086,0.3131,0.3141,0.3158,0.3164,0.3174,0.3132,0.3128,0.3123,0.3111,0.3167,0.3167,0.3215,0.3216,0.3216]},{"header":{"parameterUnit":"m.s-1","parameterCategory":1,"la1":30.2991,"la2":30.254,"lo1":-89.0895,"lo2":-89.0444,"dy":0.0017,"dx":0.0017,"nx":28,"ny":28,"refTime":"2023-11-04T03:00:00:Z","depth":0,"parameterNumber":3,"parameterNumberName":"V-component_of_WINDS"},"data":[0,0,0,0,0,0,0,0,0,0,0,0,0,0,0,0,0,0,0,0,0,0,0,0,0,0,0,0,0,0,0,0,0,0,0,0,0,0,0,0,0,0,0,0,0,0,0,0,0,0,0,0,0,0,0,0,0,0,0.531,0.531,0,0.5294,0.5294,0.5293,0.5223,0.5222,0.522,0.5218,0.52,0.5201,0.5202,0,0,0,0,0,0,0,0,0,0,0,0,0,0.5277,0.5278,0.531,0.531,0.531,0.5294,0.5294,0.5293,0.5223,0.5221,0.522,0.5218,0.52,0.5201,0.5202,0,0,0,0,0,0,0,0,0,0,0,0,0,0.5279,0.5279,0.531,0.5273,0.527,0.5294,0.5294,0.5293,0.5224,0.5221,0.5219,0.5217,0.52,0.5201,0.5203,0.5261,0,0,0.5207,0.5208,0,0,0,0,0,0,0,0,0.5279,0.5281,0.5279,0.5276,0.5272,0.5258,0.5275,0.5283,0.5225,0.5241,0.5218,0.5216,0.5221,0.5221,0.5223,0.526,0.526,0.5208,0.5208,0.5209,0.521,0,0,0,0,0,0,0,0.5279,0.5281,0.5304,0.5279,0.5275,0.5256,0.5254,0.5276,0.5245,0.524,0.5234,0.5234,0.5219,0.5222,0.5222,0.5259,0.5207,0.5209,0.521,0.521,0.5338,0.534,0,0,0,0,0,0,0.5285,0.5281,0.5304,0.5303,0.527,0.5259,0.5256,0.5265,0.5245,0.5239,0.5236,0.523,0.522,0.5221,0.5221,0.5285,0.5209,0.5211,0.5211,0.5336,0.5339,0.5341,0,0,0,0,0,0,0.5284,0.5288,0.5305,0.5291,0.5292,0.5262,0.5272,0.5266,0.5269,0.5242,0.5236,0.5245,0.5219,0.5219,0.5251,0.5283,0.5211,0.5213,0.5333,0.5337,0.534,0.5414,0,0,0,0,0,0,0.5284,0.5288,0.5311,0.5292,0.5293,0.5336,0.5275,0.5267,0.5272,0.5265,0.5248,0.5243,0.5217,0.5249,0.5252,0.5284,0.5214,0.533,0.5334,0.5339,0.5409,0.542,0.543,0,0,0,0,0,0.5283,0.5333,0.5312,0.5316,0.5321,0.5338,0.5338,0.5307,0.5275,0.5296,0.5278,0.5244,0.528,0.5253,0.5256,0.5289,0.5327,0.5333,0.5338,0.5404,0.5418,0.5429,0,0,0,0,0,0,0.5357,0.533,0.5307,0.5353,0.5348,0.5326,0.5353,0.5323,0.5327,0.532,0.5281,0.5278,0.5314,0.5305,0.5275,0.5342,0.5297,0.5304,0.5346,0.5359,0.5369,0.5369,0.5215,0,0,0,0,0,0.5379,0.5396,0.5371,0.5414,0.5413,0.5384,0.539,0.5366,0.5359,0.5357,0.5341,0.5335,0.5344,0.5352,0.5359,0.5408,0.5401,0.5432,0.5442,0.5451,0.5456,0.5476,0.5488,0.5359,0.5359,0.5359,0,0,0.5424,0.5411,0.5425,0.5429,0.5422,0.5438,0.5382,0.5403,0.5414,0.536,0.5387,0.5376,0.5366,0.5405,0.5422,0.5399,0.549,0.5458,0.5465,0.5465,0.5483,0.5495,0.5506,0.5363,0.5363,0.5362,0,0,0.5514,0.5508,0.554,0.5535,0.5525,0.5505,0.5513,0.5495,0.5484,0.5512,0.547,0.5482,0.5501,0.5494,0.5493,0.5577,0.5544,0.5581,0.5635,0.5655,0.5665,0.5674,0.57,0.571,0.5587,0.5587,0.5587,0,0.5571,0.5595,0.5561,0.5583,0.5584,0.5536,0.5567,0.5563,0.5557,0.5558,0.5532,0.5551,0.5542,0.5576,0.5597,0.5599,0.5604,0.5581,0.5667,0.5675,0.5682,0.5707,0.5717,0.5591,0.5591,0.559,0.559,0,0.5663,0.568,0.5707,0.5701,0.5706,0.5733,0.5701,0.571,0.5685,0.5667,0.5693,0.568,0.5682,0.5689,0.5666,0.5719,0.5704,0.5674,0.5628,0.5699,0.5721,0.5731,0.5597,0.5596,0.5595,0.5593,0,0,0.5799,0.5772,0.5782,0.5777,0.5761,0.5773,0.5797,0.5798,0.5804,0.5802,0.5818,0.5833,0.5803,0.5802,0.5777,0.5796,0.5858,0.5762,0.5761,0.5777,0.5911,0.5931,0.5943,0.5837,0.5838,0.584,0.591,0,0.5881,0.5919,0.5888,0.5932,0.5944,0.5897,0.5917,0.5909,0.5892,0.5899,0.588,0.589,0.5852,0.5851,0.5867,0.5847,0.5883,0.5842,0.5848,0.5849,0.5849,0.5955,0.5978,0.6045,0.5919,0.592,0.5921,0,0.5982,0.5982,0.6026,0.6004,0.6008,0.6027,0.6023,0.6032,0.6021,0.6007,0.6005,0.5974,0.5992,0.595,0.5973,0.5945,0.5946,0.5937,0.5938,0.5935,0.5887,0.5951,0.6066,0.6075,0.5935,0.5934,0.5933,0,0.6071,0.6082,0.6109,0.6106,0.6083,0.6096,0.6087,0.6073,0.6075,0.6072,0.6072,0.6072,0.6071,0.6071,0.6039,0.6012,0.6065,0.6021,0.6051,0.6052,0.6063,0.6062,0.6176,0.607,0.6069,0.6069,0.6069,0,0.6164,0.6192,0.6148,0.6164,0.6193,0.6156,0.6185,0.6171,0.6159,0.6169,0.613,0.6141,0.6101,0.6106,0.6083,0.6103,0.6104,0.6091,0.6084,0.6093,0.6094,0.6091,0.6084,0.6072,0.6071,0.6071,0.607,0,0.6268,0.624,0.6265,0.624,0.6234,0.6256,0.6234,0.6246,0.6226,0.624,0.6241,0.621,0.6214,0.6184,0.6184,0.6167,0.6198,0.6184,0.6201,0.6195,0.6226,0.6222,0.6339,0.6351,0.6241,0.6242,0.6243,0,0.6327,0.6347,0.6323,0.6328,0.632,0.6328,0.6329,0.6293,0.6295,0.6282,0.6295,0.6297,0.6295,0.6305,0.628,0.6279,0.6262,0.6303,0.6262,0.6269,0.6258,0.6256,0.6256,0.6311,0.6313,0.6314,0.6315,0,0.6434,0.6418,0.6421,0.6419,0.642,0.6417,0.641,0.6416,0.6377,0.6381,0.6385,0.6384,0.6382,0.6382,0.6375,0.6364,0.6332,0.6328,0.6334,0.6342,0.6349,0.6342,0.6221,0.6325,0.6324,0.6323,0.6323,0.6322,0.6514,0.6528,0.6512,0.6516,0.6507,0.6501,0.651,0.6491,0.6494,0.6489,0.6468,0.6475,0.6459,0.6446,0.6438,0.6441,0.6421,0.6431,0.6433,0.6435,0.6439,0.6352,0.644,0.644,0.644,0.6439,0.6439,0,0.6615,0.6602,0.6606,0.6597,0.6599,0.657,0.656,0.6563,0.657,0.6558,0.6557,0.656,0.6559,0.6535,0.6531,0.6538,0.6522,0.6537,0.6535,0.6532,0.6459,0.6452,0.6549,0.6549,0.6549,0.6549,0.6549,0.6549,0.6668,0.6688,0.667,0.6685,0.6672,0.6677,0.6674,0.6667,0.6657,0.6662,0.6661,0.6645,0.6627,0.6621,0.6618,0.6611,0.661,0.6629,0.6616,0.6548,0.6537,0.6527,0.652,0.663,0.663,0.6687,0.6688,0.6688]}]]